Wind_Speed
10 10 11 13 14 14 14 14 14 14 14 13 13 14 16 16 17 17 15 12 12 10 9 5 3 4 6 8 10 10 9 9 9 9 10 11 11 10 10 10 9 10 9
8 10 12 16 16 15 15 16 14 14 14 14 14 15 16 16 16 16 16 14 12 10 9 8 7 9 10 11 11 11 11 11 11 11 12 12 12 11 11 11 11 10 10
10 13 14 18 20 18 17 16 15 15 15 15 15 16 16 16 16 16 16 15 14 14 14 13 12 12 12 14 14 13 13 12 12 12 11 13 13 12 12 11 11 11 10
12 14 15 18 19 20 19 18 16 15 15 15 16 17 18 17 17 17 16 16 16 16 16 16 15 14 15 14 13 13 12 12 13 10 14 13 12 11 11 12 11 11 10
15 15 16 16 17 18 20 20 18 17 16 15 16 17 17 17 17 17 17 17 17 17 17 16 15 14 14 13 13 13 12 13 12 14 14 13 12 13 12 12 11 11 11
19 17 17 16 15 15 17 18 20 19 17 16 15 16 15 15 16 15 15 15 16 15 15 14 13 13 13 13 13 14 13 14 13 15 14 14 14 14 14 14 12 12 11
22 20 18 17 15 14 14 14 15 16 18 18 16 15 15 15 14 14 14 13 13 13 13 12 13 13 13 13 14 14 14 14 14 15 15 15 15 15 15 15 15 14 13
23 21 20 17 16 14 13 12 12 12 13 15 16 15 16 16 15 14 14 13 13 13 12 12 12 12 12 13 13 13 14 14 14 14 14 15 15 15 16 16 15 15 14
25 23 21 18 17 16 14 12 10 10 8 9 10 12 13 13 13 12 12 11 11 11 10 10 10 9 9 9 8 8 9 9 10 11 12 13 14 14 15 16 16 16 14
28 24 22 20 17 15 14 13 11 10 8 6 5 6 6 6 6 6 5 5 5 5 5 4 4 4 4 5 7 8 9 10 11 11 12 13 15 15 16 16 16 16 15
31 27 24 22 20 19 17 15 13 11 10 9 7 6 4 2 2 3 2 3 2 3 3 3 5 5 7 8 9 10 12 13 14 15 16 16 17 17 17 17 17 17 16
33 31 28 25 23 21 19 18 17 14 13 11 10 9 9 8 8 8 8 9 9 9 9 10 10 11 11 12 13 14 14 15 17 18 19 20 20 19 20 20 20 19 19
32 31 29 27 26 24 22 21 19 17 16 14 13 13 13 13 13 13 14 14 15 15 15 14 14 15 15 15 16 17 17 18 19 20 22 22 22 22 21 21 22 22 22
27 30 30 29 29 27 26 24 23 21 19 18 17 16 16 16 16 17 17 17 18 18 18 17 17 17 17 17 18 19 20 20 21 21 23 23 23 23 23 23 22 23 23
26 27 28 30 30 29 28 27 26 24 22 21 20 19 19 19 19 18 19 19 19 19 19 19 19 20 20 20 21 21 21 21 22 23 23 23 23 23 24 25 25 25 25
26 25 24 24 28 30 29 28 28 26 24 23 21 20 20 19 19 19 20 20 20 21 21 21 21 22 22 22 22 22 22 23 24 25 25 25 23 25 26 26 27 28 28
27 26 25 25 26 27 28 29 29 27 25 23 21 20 19 19 19 19 20 20 20 21 22 22 23 23 23 23 23 24 25 26 26 27 28 27 28 27 29 30 30 31 30
30 28 25 26 26 27 28 27 27 25 23 22 20 19 18 19 19 21 21 22 23 23 23 23 24 24 24 25 26 28 29 29 29 30 31 31 31 32 33 33 33 33 31
30 27 26 25 24 22 23 23 23 22 21 20 19 19 20 21 22 24 25 25 26 27 26 26 26 27 27 28 29 30 31 32 34 34 34 34 35 36 36 35 32 31 31
31 30 28 27 24 24 24 23 22 21 20 20 21 22 24 26 27 28 28 28 29 30 29 29 29 29 30 30 32 34 35 36 37 38 38 36 38 37 34 32 32 30 29
31 30 29 29 26 26 25 24 23 22 23 24 25 27 28 29 30 30 30 30 31 31 30 31 32 33 33 33 35 35 37 39 39 38 39 35 35 34 32 34 32 31 32
31 31 32 32 29 28 26 26 25 24 24 25 26 26 28 29 30 31 31 31 31 32 32 32 35 36 37 36 37 38 40 38 37 39 37 31 30 30 30 30 29 28 29
34 32 32 32 31 28 27 27 26 26 27 28 29 30 32 31 32 32 33 33 33 35 34 34 35 37 39 38 37 38 41 40 38 38 38 32 31 29 29 29 28 27 26
35 33 33 33 32 32 30 31 30 29 29 31 31 32 33 33 33 33 34 34 35 36 37 37 38 39 39 39 39 37 37 37 35 36 37 34 31 28 29 29 28 28 28
37 35 35 34 34 34 32 32 31 32 32 33 33 34 34 34 35 35 36 37 38 39 39 40 39 38 37 38 36 35 34 35 34 35 37 35 34 30 29 29 29 31 31
42 39 38 38 37 41 35 33 32 33 34 33 35 35 36 36 37 38 38 40 40 40 40 38 37 35 35 35 34 34 35 35 34 36 35 34 33 32 30 28 31 31 28
Wind_Direction
122 119 115 113 113 112 109 104 98 93 89 87 87 89 91 89 88 92 104 123 136 141 146 149 131 76 75 75 74 70 64 60 58 58 56 57 53 51 49 46 46 44 39
121 124 115 109 109 107 104 99 98 97 95 93 92 94 94 94 94 95 97 102 112 121 124 122 102 92 89 82 76 73 70 66 64 62 58 61 54 53 52 49 48 45 42
131 123 110 102 100 99 99 99 98 96 96 94 94 96 97 97 97 96 95 95 97 103 104 103 100 95 91 85 81 77 72 66 62 57 52 53 51 47 46 43 40 40 35
139 127 111 100 95 93 92 95 96 96 95 96 97 98 97 96 95 94 94 94 96 97 98 98 97 94 88 84 78 71 65 62 57 50 49 46 40 37 34 30 29 26 22
150 138 121 107 98 92 88 86 89 92 93 94 95 94 96 96 94 93 93 93 94 94 96 97 95 91 86 80 74 68 62 58 55 52 49 46 39 36 34 29 22 15 13
159 152 137 122 111 99 92 87 81 81 86 88 90 95 94 95 95 94 93 92 92 92 92 92 89 84 80 75 71 66 61 56 49 49 47 43 37 32 28 25 20 16 9
167 163 152 139 130 119 107 96 88 81 77 82 86 93 95 95 94 94 93 92 91 90 88 85 83 81 78 75 70 64 57 51 45 44 39 35 31 26 24 21 18 14 10
175 171 165 157 147 140 130 117 104 94 81 76 76 79 86 90 91 91 91 92 92 91 88 83 80 76 72 66 59 54 49 45 36 36 32 28 25 23 20 18 15 11 8
180 180 178 174 162 158 153 144 135 123 107 89 87 72 71 77 78 79 79 83 84 81 77 71 65 59 55 52 45 36 28 20 11 8 3 1 359 0 3 5 5 3 2
187 184 187 186 183 176 172 169 164 158 153 140 125 113 94 87 98 91 84 80 78 81 80 70 49 27 13 1 355 347 343 340 337 337 338 339 337 337 340 340 340 342 348
192 192 194 197 196 192 191 189 186 186 189 191 199 195 206 202 202 193 217 236 254 253 253 270 282 298 304 309 313 313 317 319 321 321 321 318 319 320 321 321 323 325 325
199 202 203 204 207 206 204 203 203 206 214 219 225 232 238 247 255 263 260 266 268 273 275 277 282 287 290 294 297 301 305 309 311 312 313 313 313 314 312 312 312 311 312
206 209 209 210 214 217 218 216 216 218 227 232 240 245 251 256 261 265 269 272 274 275 276 277 280 284 288 291 295 298 302 305 306 309 311 311 311 310 308 308 307 307 307
213 214 215 218 219 222 225 226 226 228 233 238 245 250 256 260 264 268 270 272 274 275 278 280 282 284 287 289 292 296 299 301 303 306 307 308 307 308 308 307 306 304 303
205 214 216 220 224 226 228 231 234 234 237 242 249 254 258 263 267 270 271 272 273 276 278 281 283 285 286 288 291 294 296 298 301 304 305 307 307 309 309 308 307 302 300
216 215 216 219 225 229 231 233 237 238 239 243 248 253 256 262 267 272 275 277 278 279 280 280 282 284 286 288 290 292 294 297 300 302 304 305 305 305 307 307 305 302 299
224 222 221 225 227 230 233 234 236 237 240 242 245 249 254 263 270 275 278 280 282 283 283 283 284 285 286 286 288 289 292 296 299 300 302 302 302 302 305 304 301 299 297
223 225 221 223 226 228 231 231 233 235 236 237 240 249 257 264 270 275 278 281 284 286 286 285 285 285 286 287 288 291 292 293 294 297 299 300 299 300 300 298 296 295 293
223 221 221 217 213 216 218 218 222 226 232 239 245 254 261 265 269 273 276 279 281 285 287 286 285 285 285 287 288 289 289 292 294 295 297 297 297 298 298 297 294 291 290
220 220 219 217 214 214 217 219 224 231 237 246 253 259 264 267 270 273 276 279 281 283 284 284 284 284 286 287 288 288 289 289 291 293 294 294 295 296 297 293 293 292 288
222 219 220 219 219 221 221 225 227 234 242 250 256 261 266 270 273 276 278 279 280 280 280 281 282 283 283 286 286 286 286 289 291 290 292 295 294 292 291 294 293 292 291
223 222 222 223 227 229 230 233 238 245 252 257 260 264 265 268 271 274 277 279 280 280 280 280 281 283 283 284 284 285 287 289 291 292 297 295 295 293 293 293 292 292 292
224 223 225 225 226 228 232 237 242 249 254 259 262 264 267 270 271 273 275 276 277 279 281 282 282 283 283 282 282 284 288 291 293 292 294 297 297 294 293 294 292 289 289
225 222 224 225 227 231 235 242 245 250 255 258 263 265 266 269 272 274 275 276 277 278 280 281 282 282 282 283 283 284 285 287 286 284 286 292 290 290 291 294 292 292 288
229 224 225 227 234 244 249 252 257 260 261 263 262 265 267 269 271 274 277 278 279 279 280 281 282 280 280 280 282 283 282 281 284 284 285 290 289 292 292 291 288 290 292
231 230 233 238 242 249 256 260 264 264 262 262 265 267 270 273 275 277 278 279 280 281 282 281 280 279 278 279 280 280 283 283 283 282 282 284 287 294 292 288 286 290 288
Height
3174 3174 3174 3173 3174 3175 3175 3175 3175 3175 3176 3176 3175 3175 3175 3175 3174 3175 3175 3176 3177 3178 3179 3180 3181 3181 3181 3181 3180 3180 3180 3180 3179 3179 3178 3178 3177 3176 3175 3175 3174 3173 3173
3174 3175 3175 3174 3175 3176 3176 3176 3177 3177 3177 3177 3177 3177 3177 3177 3177 3178 3178 3178 3179 3179 3180 3181 3182 3182 3183 3183 3182 3182 3182 3182 3181 3181 3180 3179 3178 3178 3177 3176 3175 3175 3174
3175 3175 3176 3176 3176 3177 3178 3178 3179 3179 3179 3179 3179 3179 3179 3180 3180 3180 3180 3181 3181 3182 3182 3183 3184 3185 3185 3185 3185 3185 3184 3184 3184 3183 3182 3180 3180 3179 3179 3178 3177 3176 3175
3175 3176 3177 3177 3178 3179 3180 3180 3181 3181 3181 3181 3181 3182 3182 3182 3183 3183 3183 3184 3184 3184 3184 3186 3187 3188 3187 3188 3187 3187 3187 3187 3186 3185 3183 3183 3182 3181 3180 3179 3178 3177 3176
3175 3176 3177 3178 3180 3181 3182 3182 3183 3183 3184 3184 3184 3184 3185 3185 3185 3186 3186 3187 3187 3187 3188 3189 3189 3190 3189 3190 3189 3189 3189 3188 3187 3186 3185 3185 3184 3183 3181 3180 3179 3178 3177
3175 3176 3177 3178 3180 3182 3184 3185 3185 3186 3186 3186 3187 3187 3187 3188 3188 3189 3190 3190 3190 3190 3191 3191 3191 3191 3192 3192 3191 3191 3191 3190 3189 3188 3187 3187 3185 3184 3183 3182 3180 3179 3178
3174 3176 3178 3178 3180 3182 3185 3186 3187 3188 3188 3189 3190 3190 3190 3190 3191 3192 3192 3192 3193 3193 3194 3194 3193 3194 3194 3194 3193 3193 3193 3192 3191 3190 3189 3189 3187 3186 3185 3183 3182 3180 3179
3174 3176 3178 3179 3180 3182 3184 3186 3188 3189 3191 3192 3193 3193 3193 3193 3193 3194 3194 3195 3195 3195 3195 3195 3195 3196 3196 3196 3195 3195 3194 3193 3193 3191 3191 3190 3189 3188 3186 3185 3183 3181 3179
3173 3176 3178 3180 3180 3182 3184 3186 3188 3190 3192 3193 3194 3194 3195 3195 3196 3196 3197 3197 3197 3197 3197 3198 3197 3198 3198 3197 3197 3196 3195 3194 3193 3192 3191 3191 3190 3188 3187 3185 3184 3182 3181
3171 3174 3177 3179 3181 3183 3184 3186 3188 3190 3192 3193 3194 3195 3196 3197 3197 3198 3198 3199 3199 3199 3199 3199 3198 3198 3198 3198 3197 3196 3195 3194 3193 3193 3192 3191 3189 3188 3187 3185 3184 3183 3181
3170 3173 3175 3178 3181 3182 3185 3186 3188 3190 3192 3193 3194 3195 3197 3197 3198 3198 3199 3199 3199 3200 3200 3199 3199 3199 3198 3198 3197 3196 3195 3194 3193 3192 3191 3190 3189 3187 3186 3185 3184 3182 3181
3168 3170 3173 3176 3179 3181 3184 3186 3188 3189 3191 3193 3194 3195 3196 3197 3198 3198 3198 3198 3199 3199 3199 3199 3199 3198 3197 3197 3196 3195 3194 3193 3192 3191 3190 3189 3188 3186 3185 3183 3182 3181 3179
3165 3169 3172 3174 3177 3180 3182 3185 3186 3188 3190 3192 3193 3194 3195 3196 3196 3196 3197 3197 3197 3197 3197 3197 3197 3196 3196 3195 3194 3193 3192 3191 3190 3189 3188 3186 3185 3184 3182 3181 3179 3177 3176
3163 3167 3169 3172 3174 3177 3180 3183 3185 3186 3188 3190 3191 3192 3193 3194 3194 3195 3195 3195 3195 3195 3194 3194 3194 3194 3193 3192 3192 3191 3190 3189 3188 3187 3185 3184 3183 3181 3179 3177 3176 3174 3173
3160 3163 3166 3169 3172 3175 3178 3180 3182 3184 3185 3187 3188 3190 3191 3191 3192 3192 3192 3192 3192 3192 3192 3192 3191 3191 3190 3190 3189 3188 3187 3186 3185 3184 3182 3182 3180 3177 3176 3174 3172 3171 3170
3158 3161 3163 3166 3169 3171 3174 3177 3179 3181 3182 3184 3185 3187 3188 3188 3189 3190 3190 3190 3190 3189 3189 3189 3188 3188 3187 3186 3186 3185 3184 3183 3182 3181 3179 3177 3176 3174 3172 3170 3168 3167 3165
3156 3158 3161 3163 3165 3168 3171 3173 3175 3177 3179 3181 3182 3184 3185 3186 3187 3187 3187 3187 3187 3186 3186 3186 3185 3185 3184 3183 3182 3181 3180 3179 3178 3177 3175 3174 3172 3171 3168 3166 3164 3162 3160
3153 3156 3158 3160 3162 3164 3167 3170 3172 3174 3176 3178 3179 3181 3182 3183 3183 3184 3184 3184 3183 3183 3183 3182 3181 3181 3180 3179 3178 3177 3176 3174 3174 3172 3170 3169 3167 3165 3163 3162 3159 3156 3155
3150 3152 3156 3158 3159 3161 3164 3166 3169 3171 3173 3175 3176 3178 3179 3179 3180 3180 3180 3180 3179 3179 3178 3178 3177 3176 3176 3175 3173 3172 3170 3169 3167 3166 3165 3163 3161 3159 3157 3154 3153 3151 3150
3146 3149 3152 3155 3157 3159 3161 3163 3166 3169 3170 3171 3173 3174 3175 3175 3175 3176 3176 3176 3175 3174 3174 3173 3173 3172 3171 3170 3168 3166 3165 3163 3162 3160 3159 3158 3155 3153 3150 3148 3146 3146 3144
3142 3145 3148 3151 3154 3155 3157 3160 3162 3164 3165 3166 3168 3169 3169 3170 3171 3171 3171 3170 3170 3169 3169 3168 3167 3166 3165 3164 3162 3160 3159 3157 3155 3155 3153 3152 3149 3146 3144 3142 3141 3139 3137
3137 3141 3144 3147 3149 3151 3153 3156 3158 3160 3161 3162 3163 3164 3164 3165 3165 3165 3165 3165 3164 3163 3163 3163 3161 3159 3158 3158 3156 3153 3150 3151 3150 3145 3146 3145 3143 3140 3138 3136 3135 3133 3131
3133 3137 3140 3143 3145 3147 3149 3151 3153 3155 3157 3158 3158 3159 3159 3160 3159 3159 3159 3159 3158 3157 3156 3156 3154 3152 3150 3150 3150 3148 3143 3142 3141 3139 3137 3138 3136 3134 3132 3130 3128 3126 3124
3128 3131 3135 3138 3140 3142 3144 3146 3148 3150 3150 3151 3153 3153 3153 3154 3153 3153 3153 3152 3151 3150 3149 3148 3147 3145 3143 3141 3141 3141 3139 3136 3134 3132 3130 3131 3130 3129 3126 3124 3121 3119 3118
3122 3126 3129 3132 3136 3138 3140 3142 3143 3144 3145 3145 3146 3146 3146 3146 3146 3146 3146 3145 3144 3143 3142 3140 3139 3137 3136 3134 3133 3131 3131 3129 3128 3126 3123 3123 3121 3120 3119 3117 3115 3113 3111
3115 3119 3122 3125 3129 3132 3135 3136 3137 3137 3138 3139 3139 3139 3139 3139 3139 3138 3138 3137 3136 3135 3134 3132 3131 3130 3128 3127 3126 3124 3122 3121 3120 3118 3116 3115 3113 3113 3112 3111 3108 3107 3105